Hourly Data Report for July 23, 2021

WINDSOR A
ONTARIO
Current Station Operator: NAVCAN

42°16'34.000" N
82°57'19.000" W
189.60 m
6139530
71538
YQG

Download Data

Hourly Data (July 2021)
Hourly Data Report for July 23, 2021
TIME
LST
Temp Definition
°C
Dew Point Definition
°C
Rel Hum Definition
%
Precip. Amount Definition
mm

Wind Dir Definition
10's deg

Wind Spd Definition
km/h
Visibility Definition
km
Stn Press Definition
kPa
Hmdx Definition


Wind Chill Definition


Weather Definition


00:00 16.5 14.8 90 0.0   0 16.1 99.99     LegendNANA
01:00 17.6 15.2 86 0.0 26 4 16.1 100.02     LegendNANA
02:00 16.6 15.8 95 0.0 11 5 16.1 99.99     LegendNANA
03:00 16.9 15.6 92 0.0   0 16.1 99.98     LegendNANA
04:00 16.7 15.7 94 0.0 11 9 16.1 99.96     LegendNANA
05:00 16.2 15.3 94 0.0 15 4 16.1 99.97     LegendNANA
06:00 17.3 15.7 90 0.0 15 8 16.1 100.00     LegendNANA
07:00 18.3 16.2 87 0.0 16 4 16.1 100.03     LegendNANA
08:00 19.1 16.4 84 0.2 13 5 16.1 100.02     Rain
09:00 20.5 17.2 81 0.0 20 5 16.1 100.03 26   LegendNANA
10:00 21.0 16.8 77 0.0 17 11 16.1 100.04 26   LegendNANA
11:00 22.1 17.0 72 0.0 18 13 16.1 100.02 27   LegendNANA
12:00 20.6 17.0 80 0.8 21 15 16.1 99.99 26   Rain
13:00 19.2 17.0 87 1.2 18 13 14.5 99.94     Moderate Rain
14:00 19.7 17.6 87 0.5 16 13 16.1 99.90     LegendNANA
15:00 21.2 17.8 81 0.0 15 11 16.1 99.86 27   LegendNANA
16:00 22.3 18.1 77 0.0 14 11 16.1 99.79 28   LegendNANA
17:00 23.3 17.7 71 0.0 18 11 16.1 99.75 29   LegendNANA
18:00 22.3 17.7 75 0.0 17 11 16.1 99.71 28   LegendNANA
19:00 21.1 17.9 82 0.0 15 11 16.1 99.68 27   LegendNANA
20:00 20.3 17.7 85 0.0 15 9 16.1 99.61 26   LegendNANA
21:00 19.5 17.5 88 0.0 16 8 16.1 99.62     LegendNANA
22:00 18.5 17.2 92 0.0 13 4 16.1 99.64     LegendNANA
23:00 18.4 16.9 91 0.0 12 8 16.1 99.62     LegendNANA

Notes on Data Quality.

Legend

  • E = Estimated
  • M = Missing
  • NA = Not Available*
  • [empty] = Indicates an unobserved value
Date modified: